Погода в Нижнеудинске

Погода в Нижнеудинске : погода сейчас, прогноз погоды и архив. Всё, что Вы хотите узнать о погоде в Нижнеудинске!

Хотите узнать прогноз погоды в Нижнеудинске? Тогда Вам сюда: Погода в Нижнеудинске

Поиск расширенной информации на нашем сайте:

Другие новости

Новости СМИ2

Главная страница сайта

Новости сайта

03.07.2017

Напоминаем, что на нашем специализированном сайте Метеоцентр.Азия вы можете получить высокодетализированные автоматические прогнозы погоды по пунктам России, СНГ и мира в авиационном формате (включающие направление и скорость ветра, видимость, явления погоды, количество и форму облачности, нижнюю и верхнюю границу облачности).


Погода в Нижнеудинске - сегодня

Время (UTC), дата Ветер
(°,м/с) 
Видим.   Явления Облачность Т
(°С)
Тd
(°С)
f(%) Тe
(°С)
Pmin
(гПа)
dP
(гПа)
Po
(мм)
O2
(г/м3)
Тmin Tmax R s Состояние
почвы
00 23.09.18 110 (В) 20000 м    8/0 верхняя 
[Ci fib]
+0.2 -0.1 98 +1  1021.4  0.1  728  293  -1.3         
03 23.09.18 130 (ЮВ) 20000 м    10/0 средняя, верхняя 
[Ac lent|Ci fib]
+8.2 +2.3 66 +8  1019.6  -0.3  728  284           
06 23.09.18 230 (ЮЗ) 20000 м    10/0 средняя, верхняя 
[Ac lent|Ci fib]
+15.3 +4.1 47 +17  1016.9  -1.4  727  277           
09 23.09.18 360 (С) 20000 м    10/0 средняя, верхняя 
[Ac lent|Ci fib]
+19.1 +5.1 40 +21  1015.1  -1  726  273           
12 23.09.18 тихо ()   н/о    10/5 600 м кучево-дожд., средняя, верхняя 
[Cb cap|Ac lent|Ci fib]
+11.5 +6.6 72 +12  1017  0.6  726  280    +19.4       
15 23.09.18 тихо ()   н/о    10/3 600 м кучево-дожд., средняя, верхняя 
[Cb cap|Ac lent|Ci fib]
+8 +6.4 90 +8  1017.3  -0.3  726  283           
18 23.09.18 120 (ЮВ) н/о    8/3 600 м кучево-дожд., средняя, верхняя 
[Cb cap|Ac lent|Ci fib]
+7.3 +5.1 86 +8  1017  -0.5  726  284           
21 23.09.18 тихо ()   н/о    10/5 600 м кучево-дожд., верхняя 
[Cb cap|Ci sp]
+5.8 +5 95 +6  1016.5  -0.7  725  285           
00 24.09.18 тихо ()   20000 м    8/3 600 м кучево-дожд., средняя, верхняя 
[Cb cap|Ac lent|Ci fib]
+3.4 +3.1 98 +3  1017.1  0.2  725  288  +3.4        влажная 
03 24.09.18 110 (В) 20000 м    3/0 верхняя 
[Ci fib]
+13 +5.5 60 +14  1014.9  -0.5  725  278  +3.2         
06 24.09.18 190 (Ю) 20000 м    4/1 1000 м верхняя 
[Cu med, cong|Ci fib]
+20.5 +4.8 36 +21  1012.3  -1.3  724  271           
09 24.09.18 170 (Ю) 20000 м    10/1 1000 м верхняя 
[Cu med, cong|Ci fib]
+22.2 +4.2 31 +22  1010.9  -1.1  723  269           
12 24.09.18 100 (В) 20000 м    10/1 1000 м верхняя 
[Sc|Ci fib]
+11.5 +7.8 78 +13  1012.9  0.3  723  278    +22.7       
15 24.09.18 130 (ЮВ) н/о    8/0 верхняя 
[Ci fib]
+5.4 +4.3 93 +6  1014.5  0.4  724  285           
18 24.09.18 тихо ()   н/о    6/0 верхняя 
[Ci fib]
+2.7 +2.3 97 +3  1014.2  -0.7  723  288           
21 24.09.18 080 (В) н/о    8/0 верхняя 
[Ci fib]
+2.8 +2.6 99 +4  1013.2  -1  722  288           
00 25.09.18 280 (З) 20000 м    10/0 средняя, верхняя 
[Ac As|Ci sp]
+2 +1.8 99 +3  1014.6  1.2  723  289  +1.1         
03 25.09.18 340 (С) 20000 м    10/10 1000 м 
[Sc]
+8 +5.1 82 +9  1015.2  1.7  725  283           
06 25.09.18 330 (СЗ) 20000 м    10/10 600 м кучево-дожд. 
[Cb cap]
+12.7 +8.3 75 +13  1015  0.6  725  278           
09 25.09.18 310 (СЗ) 20000 м    10/10 600 м кучево-дожд. 
[Cb cap]
+11.3 +7.2 76 +12  1016.5  1.2  726  280           
12 25.09.18 090 (В) н/о  слаб. ливневой дождь  10/10 600 м кучево-дожд. 
[Cb cap]
+8.8 +8.2 96 +10  1017.5  0.5  726  282    +13.5  0.5     
15 25.09.18 тихо ()   н/о  {ливн. осадки}  10/10 600 м кучево-дожд. 
[Cb cap]
+7.9 +7.8 99 +8  1017.9  0.3  727  283           
18 25.09.18 100 (В) н/о  дымка{ливн. осадки}  4/3 1000 м верхняя 
[Sc diur, vesp|Ci fib]
+3.9 +3.7 99 +5  1018.2  -0.5  726  288           
21 25.09.18 090 (В) н/о    10/10 600 м кучево-дожд. 
[Cb cap]
+4.9 +4.8 99 +6  1016.8  -1.2  725  286           
00 26.09.18 тихо ()   20000 м    10/9 600 м кучево-дожд., верхняя 
[Cb cap|Ci fib]
+5.3 +5.1 99 +5  1017  0.3  725  286  +3.5    0.4     
Время (UTC), дата Ветер
(°,м/с) 
Видим.   Явления Облачность Т
(°С)
Тd
(°С)
f(%) Тe
(°С)
Pmin
(гПа)
dP
(гПа)
Po
(мм)
O2
(г/м3)
Тmin Tmax R s Состояние
почвы

Для получения пояснительной информации подведите курсор к названию столбца.

ПОГОДА в Нижнеудинске - архив

Всё, что Вы хотите узнать о погоде в Нижнеудинске - удобно и подробно!

Выберите нужную дату (начиная с 1 января 2015* года) и нажмите кнопку "Найти".
Будут отображены архивные сводки погоды по пункту Нижнеудинск, начиная с указанной даты.


Отображать данные в формате CSV (для использования в таблицах Excel)


Внимание! Наш архив погоды предназначен исключительно для личного некоммерческого использования в познавательных целях. Если Вам необходимы официальные справки о состоянии погоды (для производственных, юридических, коммерческих и т.п. целей), обращайтесь в органы Росгидромета.

*Примечание: данная дата относится к архиву по метеостанциям СССР (Россия, СНГ, Балтия).
Архив по метеостанциям Зарубежной Европы и Азии (кроме Китая) хранится 10 дней, по другим регионам земного шара (Китай, Африка, Америка, Австралия, Океания) - 1 день.

Нижнеудинск - район местоположения метеостанции


Название, широта, долгота, высота метеостанции:
Нижнеудинск 54.9°ш. 99°д. 411 м над ур. моря [Российская Федерация]

Дополнительная информация

В oтличие oт бoльшинства пoгoдных сайтoв мы публикуем пoдрoбную метеoинфoрмацию в детальнoм прoфессиoнальнoм фoрмате.

Характеристики температуры и влажнoсти вoздуха измеряются на высoте 2 м в тени вдали oт зданий и деревьев.
Скoрoсть ветра измеряется на высoте 10 м (на урoвне рoста челoвека скoрoсть ветра ниже в 1.5-2 раза). Если метеoстанция нахoдится в гoрoде или в лесу, тo скoрoсть ветра занижена на 2-4 м/с пo сравнению с oткрытым местoм. Скoрoсть ветра над акватoриями крупных рек и oзёр, а также на вершинах хoлмoв на 2-5 м/с выше, чем в oбычных услoвиях.
Атмoсфернoе давление в разных тoчках местнoсти мoжет значительнo oтличаться oт давления на метеoстанции, в зависимoсти oт услoвий рельефа (при пoдъёме на 10 м давление пoнижается примернo на 1 мм рт.ст.).